CW1084 Weather Reports


Display with metric or nautical units.
time (UTC)temp
F
wind
direction
speed
MPH
gust
MPH
rain 1hr
in
rain 24hr
in
rain mn
in
humidity
%
barometer
mb
20260504181947 71 152 2.0 10.0 0.00 0.00 0.00 49 1011.2
20260504181341 72 143 2.0 7.0 0.00 0.00 0.00 49 1011.3
20260504180809 72 135 2.0 13.0 0.00 0.00 0.00 47 1011.4
20260504180242 72 175 2.0 8.0 0.00 0.00 0.00 44 1011.4
20260504175739 74 154 1.0 7.0 0.00 0.00 0.00 40 1011.3
20260504175128 75 178 1.0 7.0 0.00 0.00 0.00 37 1011.3
20260504174631 75 223 1.0 7.0 0.00 0.00 0.00 32 1011.3
20260504174443 75 178 1.0 8.0 0.00 0.00 0.00 33 1011.4
20260504173515 73 236 1.0 8.0 0.00 0.00 0.00 33 1011.6
20260504173450 74 258 2.0 7.0 0.00 0.00 0.00 33 1011.5
20260504172243 73 228 1.0 6.0 0.00 0.00 0.00 32 1011.8
20260504171703 73 223 1.0 5.0 0.00 0.00 0.00 33 1011.8
20260504171155 73 207 1.0 8.0 0.00 0.00 0.00 35 1011.9
20260504170537 73 227 1.0 6.0 0.00 0.00 0.00 34 1011.9
20260504160328 70 223 0.0 4.0 0.00 0.00 0.00 35 1012.6
20260504150808 67 225 0.0 3.0 0.00 0.00 0.00 40 1013.0
20260504150304 66 225 0.0 3.0 0.00 0.00 0.00 41 1013.0
20260504141128 62 227 2.0 11.0 0.00 0.00 0.00 46 1013.0
20260504140650 61 236 2.0 9.0 0.00 0.00 0.00 46 1013.0
20260504140620 62 194 2.0 9.0 0.00 0.00 0.00 46 1013.0
20260504130328 58 246 1.0 8.0 0.00 0.00 0.00 47 1013.6
20260504120221 56 265 1.0 5.0 0.00 0.00 0.00 50 1013.8
20260504110225 53 207 0.0 0.0 0.00 0.00 0.00 52 1014.2
20260504100403 53 180 0.0 0.0 0.00 0.00 0.00 51 1014.2
20260504100210 53 180 0.0 0.0 0.00 0.00 0.00 51 1014.3
20260504081508 54 188 0.0 6.0 0.00 0.00 0.00 51 1014.5
20260504080955 54 181 0.0 0.0 0.00 0.00 0.00 51 1014.4
20260504080606 54 181 0.0 2.0 0.00 0.00 0.00 51 1014.5
20260504070309 53 164 0.0 5.0 0.00 0.00 0.00 50 1014.8
20260504050711 51 229 0.0 1.0 0.00 0.00 0.00 58 1014.6
20260504050116 50 229 0.0 1.0 0.00 0.00 0.00 58 1014.7
20260504045645 50 229 0.0 0.0 0.00 0.00 0.00 59 1014.7
20260504045226 50 229 0.0 0.0 0.00 0.00 0.00 59 1014.8
20260504044755 50 229 0.0 0.0 0.00 0.00 0.00 60 1014.8
20260504043951 50 229 0.0 1.0 0.00 0.00 0.00 60 1014.8
20260504043532 50 229 0.0 1.0 0.00 0.00 0.00 60 1014.9
20260504042717 50 229 0.0 0.0 0.00 0.00 0.00 60 1014.8
20260504042203 50 229 0.0 2.0 0.00 0.00 0.00 61 1014.7
20260504041624 50 229 0.0 2.0 0.00 0.00 0.00 61 1014.7
20260504041458 50 229 0.0 1.0 0.00 0.00 0.00 61 1014.7
20260504040951 50 229 0.0 1.0 0.00 0.00 0.00 61 1014.7
20260504035921 50 229 0.0 0.0 0.00 0.00 0.00 61 1014.7
20260504035609 50 229 0.0 0.0 0.00 0.00 0.00 61 1014.7
20260504034813 50 229 0.0 0.0 0.00 0.00 0.00 61 1014.6
20260504034219 50 229 0.0 0.0 0.00 0.00 0.00 61 1014.6
20260504033930 50 229 0.0 0.0 0.00 0.00 0.00 61 1014.4
20260504033131 50 229 0.0 0.0 0.00 0.00 0.00 61 1014.3
20260504032710 50 229 0.0 0.0 0.00 0.00 0.00 60 1014.2
20260504032219 50 229 0.0 0.0 0.00 0.00 0.00 60 1014.3
20260504031445 50 229 0.0 0.0 0.00 0.00 0.00 60 1014.4
20260504030917 50 229 0.0 0.0 0.00 0.00 0.00 60 1014.3
20260504030301 50 229 0.0 0.0 0.00 0.00 0.00 59 1014.3
20260504025707 50 229 0.0 0.0 0.00 0.00 0.00 59 1014.3
20260504025131 50 229 0.0 0.0 0.00 0.00 0.00 60 1014.2
20260504025007 50 229 0.0 0.0 0.00 0.00 0.00 59 1014.2
20260504024020 50 229 0.0 0.0 0.00 0.00 0.00 59 1014.2
20260504023556 50 229 0.0 0.0 0.00 0.00 0.00 59 1014.2
20260504022909 51 229 0.0 0.0 0.00 0.00 0.00 59 1014.2
20260504022849 51 229 0.0 0.0 0.00 0.00 0.00 59 1014.3
20260504022600 51 229 0.0 0.0 0.00 0.00 0.00 59 1014.2
20260504021820 51 229 0.0 0.0 0.00 0.00 0.00 59 1014.2
20260504021220 51 229 0.0 0.0 0.00 0.00 0.00 58 1014.2
20260504020627 51 229 0.0 0.0 0.00 0.00 0.00 58 1014.1
20260504015553 51 229 0.0 0.0 0.00 0.00 0.00 57 1014.1
20260504015013 51 229 0.0 0.0 0.00 0.00 0.00 58 1014.1
20260504014340 51 229 0.0 0.0 0.00 0.00 0.00 57 1014.1
20260504013853 51 229 0.0 0.0 0.00 0.00 0.00 57 1014.1
20260504013303 52 229 0.0 0.0 0.00 0.00 0.00 57 1014.0
20260504012748 52 229 0.0 0.0 0.00 0.00 0.00 57 1014.0
20260504012139 52 229 0.0 0.0 0.00 0.00 0.00 56 1013.8
20260504011525 53 229 0.0 0.0 0.00 0.00 0.00 55 1013.8
20260504010938 53 229 0.0 0.0 0.00 0.00 0.00 55 1013.8
20260504010331 53 229 0.0 0.0 0.00 0.00 0.00 53 1013.8
20260504010319 53 229 0.0 0.0 0.00 0.00 0.00 54 1013.7
20260504005625 54 229 0.0 0.0 0.00 0.00 0.00 52 1013.8
20260504004803 54 229 0.0 0.0 0.00 0.00 0.00 52 1013.7
20260504004016 54 229 0.0 0.0 0.00 0.00 0.00 51 1013.6
20260504003451 55 229 0.0 0.0 0.00 0.00 0.00 50 1013.6
20260504002852 55 229 0.0 0.0 0.00 0.00 0.00 50 1013.5
20260504002312 56 229 0.0 0.0 0.00 0.00 0.00 49 1013.5
20260504001724 56 229 0.0 0.0 0.00 0.00 0.00 48 1013.5
20260504001117 57 229 0.0 0.0 0.00 0.00 0.00 47 1013.4
20260504000535 57 229 0.0 0.0 0.00 0.00 0.00 46 1013.4
20260504000049 58 229 0.0 0.0 0.00 0.00 0.00 46 1013.3
20260503235643 58 229 0.0 0.0 0.00 0.00 0.00 44 1013.2
20260503234848 58 229 0.0 0.0 0.00 0.00 0.00 42 1013.1
20260503234330 59 229 0.0 0.0 0.00 0.00 0.00 42 1013.1
20260503233751 59 229 0.0 0.0 0.00 0.00 0.00 41 1013.0
20260503233529 60 229 0.0 0.0 0.00 0.00 0.00 40 1013.0
20260503232600 60 229 0.0 0.0 0.00 0.00 0.00 39 1013.0
20260503231956 60 229 0.0 2.0 0.00 0.00 0.00 38 1013.0
20260503231430 60 229 0.0 0.0 0.00 0.00 0.00 40 1012.9
20260503231011 60 229 0.0 2.0 0.00 0.00 0.00 37 1013.0
20260503230353 60 229 0.0 2.0 0.00 0.00 0.00 36 1012.9
20260503225712 60 229 0.0 2.0 0.00 0.00 0.00 37 1013.0
20260503225114 61 229 0.0 2.0 0.00 0.00 0.00 37 1013.0
20260503224542 61 229 0.0 2.0 0.00 0.00 0.00 36 1013.0
20260503224433 61 229 0.0 5.0 0.00 0.00 0.00 35 1013.0
20260503223443 61 230 0.0 5.0 0.00 0.00 0.00 34 1013.0
20260503222959 61 229 1.0 6.0 0.00 0.00 0.00 35 1012.9
20260503222317 61 229 1.0 6.0 0.00 0.00 0.00 33 1013.0
20260503222136 62 231 2.0 12.0 0.00 0.00 0.00 33 1013.1
20260503221917 62 231 2.0 12.0 0.00 0.00 0.00 33 1013.1
20260503221210 62 247 2.0 12.0 0.00 0.00 0.00 32 1013.0
20260503220602 62 245 1.0 9.0 0.00 0.00 0.00 32 1013.1
20260503220245 62 275 1.0 6.0 0.00 0.00 0.00 33 1013.1
20260503220017 62 275 1.0 6.0 0.00 0.00 0.00 33 1013.1
20260503215503 62 257 1.0 6.0 0.00 0.00 0.00 33 1013.0
20260503215059 63 244 1.0 5.0 0.00 0.00 0.00 32 1012.9
20260503214258 63 221 1.0 5.0 0.00 0.00 0.00 31 1013.0
20260503213738 64 184 1.0 8.0 0.00 0.00 0.00 31 1013.0
20260503213655 64 173 1.0 5.0 0.00 0.00 0.00 31 1012.9
20260503212555 64 259 0.0 8.0 0.00 0.00 0.00 30 1013.1
20260503212027 64 234 1.0 8.0 0.00 0.00 0.00 31 1012.9
20260503211451 64 234 1.0 8.0 0.00 0.00 0.00 31 1012.8
20260503210918 64 263 1.0 10.0 0.00 0.00 0.00 31 1012.9
20260503210339 64 244 1.0 9.0 0.00 0.00 0.00 30 1012.8
20260503205751 64 200 1.0 12.0 0.00 0.00 0.00 31 1012.8
20260503205208 64 220 1.0 6.0 0.00 0.00 0.00 30 1013.0
20260503204558 64 245 2.0 10.0 0.00 0.00 0.00 32 1013.0
20260503204118 64 252 1.0 11.0 0.00 0.00 0.00 31 1012.9
20260503203427 64 218 1.0 11.0 0.00 0.00 0.00 32 1013.0
20260503202838 63 228 2.0 12.0 0.00 0.00 0.00 32 1013.1
20260503202308 63 231 2.0 12.0 0.00 0.00 0.00 31 1013.2
20260503201725 64 244 1.0 9.0 0.00 0.00 0.00 32 1013.3
20260503201256 63 269 1.0 9.0 0.00 0.00 0.00 33 1013.3
20260503200859 63 214 3.0 20.0 0.00 0.00 0.00 31 1013.4
20260503200853 63 250 2.0 20.0 0.00 0.00 0.00 31 1013.6
20260503195401 63 50 1.0 11.0 0.00 0.00 0.00 32 1013.6
20260503194909 63 48 1.0 11.0 0.00 0.00 0.00 32 1013.7
20260503194227 63 0 1.0 9.0 0.00 0.00 0.00 31 1013.7
20260503193715 63 223 1.0 12.0 0.00 0.00 0.00 32 1013.7
20260503193126 63 235 1.0 12.0 0.00 0.00 0.00 32 1013.8
20260503192713 63 226 1.0 12.0 0.00 0.00 0.00 33 1014.0
20260503192114 63 9 1.0 12.0 0.00 0.00 0.00 33 1014.0
20260503191623 62 212 1.0 14.0 0.00 0.00 0.00 32 1014.0
20260503190846 62 259 1.0 14.0 0.00 0.00 0.00 32 1014.1
20260503190311 62 283 2.0 5.0 0.00 0.00 0.00 33 1014.0
20260503185655 62 258 1.0 11.0 0.00 0.00 0.00 32 1014.0
20260503185105 62 198 1.0 7.0 0.00 0.00 0.00 33 1014.2
20260503184554 62 244 1.0 12.0 0.00 0.00 0.00 32 1014.2
20260503183927 62 240 1.0 12.0 0.00 0.00 0.00 32 1014.1
20260503183505 61 67 2.0 9.0 0.00 0.00 0.00 32 1014.2
20260503182947 61 224 2.0 16.0 0.00 0.00 0.00 31 1014.2